TDRS 5

Last updated on Tue Sep 16 2025 00:02:39 GMT+0000 (Coordinated Universal Time)

1 21639U 91054B 25258.48586506 .00000074 00000+0 00000+0 0 9993 2 21639 14.1051 355.7924 0011679 239.8789 126.5193 1.00265262124963
UTC large
Height (km)
Speed (km/s)
/
Latitude / Longitude
Inclination (degrees)
Orbital Period (minutes)
Azimuth
Elevation
Range (km)
Doppler Factor

Next 0 passes for location: London (51.5072 / 0.1276)

Sorry there are no passes over London.